This is the latest recevied weather packets stored in our database for station/object SA7AHC. If no packets are shown the sender has not sent any weather packets the latest 10 day(s).
| Time | Temp. | Humidity | Pressure | Rain* | Wind** | Luminosity | Snow |
|---|---|---|---|---|---|---|---|
| 1788620310 | 13.89° C | 85% | 1006.1 hPa | 0 mm | - | 44 W/m² | - |
| 1788619710 | 13.89° C | 84% | 1006 hPa | 0 mm | - | 65 W/m² | - |
| 1788619109 | 14.44° C | 82% | 1005.9 hPa | 0 mm | - | 58 W/m² | - |
| 1788618509 | 14.44° C | 83% | 1006 hPa | 0 mm | - | 401 W/m² | - |
| 1788617910 | 14.44° C | 83% | 1005.8 hPa | 0 mm | - | 153 W/m² | - |
| 1788617311 | 14.44° C | 80% | 1005.7 hPa | 0.25 mm | - | 178 W/m² | - |
| 1788616709 | 14.44° C | 83% | 1005.7 hPa | 0.25 mm | - | 223 W/m² | - |
| 1788616109 | 14.44° C | 86% | 1005.6 hPa | 0.25 mm | - | 441 W/m² | - |
| 1788615509 | 13.33° C | 89% | 1005.5 hPa | 0.25 mm | - | 60 W/m² | - |
| 1788614909 | 13.89° C | 90% | 1005.5 hPa | 0.76 mm | - | 90 W/m² | - |
| 1788614309 | 14.44° C | 92% | 1005.3 hPa | 1.02 mm | - | 192 W/m² | - |
| 1788613709 | 13.89° C | 90% | 1005.3 hPa | 0.76 mm | - | 176 W/m² | - |
| 1788613111 | 13.33° C | 91% | 1005.3 hPa | 0.76 mm | - | 492 W/m² | - |
| 1788612510 | 13.33° C | 92% | 1005.3 hPa | 0.76 mm | - | 580 W/m² | - |
| 1788611908 | 13.33° C | 88% | 1004.9 hPa | 0.76 mm | - | 77 W/m² | - |
| 1788611308 | 14.44° C | 84% | 1005 hPa | 0.25 mm | - | 153 W/m² | - |
| 1788610709 | 15.56° C | 77% | 1004.8 hPa | 0 mm | - | 185 W/m² | - |
| 1788610110 | 16.11° C | 75% | 1004.6 hPa | 0 mm | - | 721 W/m² | - |
| 1788609509 | 16.11° C | 76% | 1004.6 hPa | 0 mm | - | 251 W/m² | - |
| 1788608910 | 15.56° C | 77% | 1004.6 hPa | 0 mm | - | 557 W/m² | - |
| 1788608308 | 15.56° C | 77% | 1004.5 hPa | 0 mm | - | 701 W/m² | - |
| 1788607707 | 15.56° C | 77% | 1004.5 hPa | 0 mm | - | 684 W/m² | - |
| 1788607100 | 15.56° C | 79% | 1004.3 hPa | 0 mm | - | 673 W/m² | - |
| 1788606502 | 15.56° C | 76% | 1004.4 hPa | 0 mm | - | 679 W/m² | - |
| 1788605899 | 15° C | 78% | 1004.3 hPa | 0 mm | - | 218 W/m² | - |
* Rain latest hour (hover to see other rain measurements)
** Current wind speed in m/s (hover to see current wind gust speed)